Location: ???????
(54.9567°N, 38.2836°E)
Time: 10:08:30
(UTC+00:00)

Gbstr 26 Del rocket - Pass Details

Date: 14 April 2024
Orbit: 491 x 1240 km, 51.8° (Epoch: 19 May)

Event Time Altitude Azimuth Distance (km) Brightness Sun altitude
Exits shadow 00:31:27 24° 201° (SSW) 1,180 4.0 -14.9°
Maximum altitude 00:33:07 33° 158° (SSE) 913 3.7 -14.7°
Drops below altitude 10° 00:36:34 10° 93° (E) 1,721 6.0 -14.4°
Sets 00:38:47 0° 84° (E) 2,579 7.2 -14.1°
